Regional Weather Roundup
Issued by NWS Little Rock, AR

Home | Current Version | Previous Version | Text Only | Print | Product List | Glossary On
Versions: 1 2 3 4 5 6 7 8 9 10 11 12 13 14 15 16 17 18 19 20 21 22 23 24 25 26 27 28 29 30 31 32 33 34 35 36 37 38 39 40 41 42 43 44 45 46 47 48 49 50
000
ASUS44 KLZK 250505
RWRLZK

WEATHER ROUNDUP FOR ARKANSAS
NATIONAL WEATHER SERVICE LITTLE ROCK AR
1200 AM CDT SAT APR 25 2015

NOTE: "FAIR" INDICATES FEW OR NO CLOUDS BELOW 12,000 FEET WITH NO
SIGNIFICANT WEATHER AND/OR OBSTRUCTIONS TO VISIBILITY.

ARZ001-003-010-029-250600-
NORTHWEST ARKANSAS

CITY           SKY/WX    TMP DP  RH WIND       PRES   REMARKS
FAYETTEVILLE   CLOUDY    61  58  90 S9        29.65S
FORT SMITH     CLOUDY    60  57  89 E8        29.66R
HARRISON       LGT RAIN  61  58  90 S12       29.64F
BENTONVILLE    CLOUDY   N/A N/A N/A S8        29.62F
ROGERS         CLOUDY    60  56  86 S10       29.64S
SILOAM SPGS    CLOUDY    61  54  77 S12       29.63F
HIGHFILL       CLOUDY    61  56  83 S16       29.62F
$$

ARZ004-005-016-250600-
NORTH CENTRAL ARKANSAS

CITY           SKY/WX    TMP DP  RH WIND       PRES   REMARKS
BATESVILLE     CLOUDY    57  55  94 SE9       29.71S
FLIPPIN        CLOUDY    61  57  88 SE5       29.65F
MTN HOME       CLOUDY    57  56  96 CALM      29.67F
$$

ARZ040-041-250600-
WEST CENTRAL ARKANSAS

CITY           SKY/WX    TMP DP  RH WIND       PRES   REMARKS
MENA           CLOUDY    63  61  94 W3        29.70R
MOUNT IDA      CLOUDY    62  62 100 S3        29.66S
$$

ARZ009-017-025-026-028-250600-
NORTHEAST ARKANSAS

CITY           SKY/WX    TMP DP  RH WIND       PRES   REMARKS
CORNING          N/A     57  57 100 W6        29.74R
JONESBORO      CLOUDY    56  56 100 S12       29.73R
NEWPORT        CLOUDY    57  57 100 S12       29.73F
WALNUT RIDGE   CLOUDY    57  54  88 S12       29.71S
BLYTHEVILLE    LGT RAIN  57  56  96 SE20G32   29.72F
$$

ARZ022-023-033-042-044-250600-
CENTRAL ARKANSAS

CITY           SKY/WX    TMP DP  RH WIND       PRES   REMARKS
LITTLE ROCK    TSTM      61  57  88 S6        29.76R
N LITTLE ROCK  CLOUDY    60  60 100 S8        29.77R
JACKSONVILLE   LGT RAIN  59  59 100 S8        29.73F
SEARCY         CLOUDY    59  58  96 E3        29.72F
HOT SPRINGS    LGT RAIN  61  59  93 SE13G25   29.66F
RUSSELLVILLE   CLOUDY    60  59  96 E5        29.67F
CLINTON        CLOUDY    59  59 100 CALM      29.72F
$$

ARZ036-250600-
EAST ARKANSAS

CITY           SKY/WX    TMP DP  RH WIND       PRES   REMARKS
WEST MEMPHIS   LGT RAIN  57  57 100 S17G24    29.75F
$$

ARZ050-053-066-070-073-250600-
SOUTHWEST ARKANSAS

CITY           SKY/WX    TMP DP  RH WIND       PRES   REMARKS
ARKADELPHIA    CLOUDY    60  60 100 VRB5      29.69F
CAMDEN         LGT RAIN  63  59  88 NE6       29.74
TEXARKANA      LGT RAIN  62  61  96 SE9       29.69F
EL DORADO      LGT RAIN  62  60  93 E7        29.78F
DE QUEEN       CLOUDY    63  62  97 CALM      29.69R
$$

ARZ056-057-069-250600-
SOUTHEAST ARKANSAS

CITY           SKY/WX    TMP DP  RH WIND       PRES   REMARKS
PINE BLUFF     HVY RAIN  60  59  96 S12       29.83R FOG
STUTTGART      CLOUDY    59  55  88 SE16      29.73F
MONTICELLO     RAIN      62  62 100 W10       29.85R FOG

$$





USA.gov is the U.S. government's official web portal to all federal, state and local government web resources and services.